sat.trackr.live / text

‹ back to catalog

STARLINK-6118

NORAD 57106 · 2023-090F

PAYLOAD ACTIVE UNKNOWN

§ Identity

Operator
Country
US
Launch date
2023-06-23
Launch site
AFETR
Launch vehicle
Mass (kg)
RCS (m²)

Purposes: comms

External: N2YO · Heavens-Above · Gunter

§ Orbital elements

Epoch: 2026-09-20T16:24:38.439072Z

Period
94.27 min
Inclination
43.0007°
Eccentricity
0.0000922
Mean motion
15.27576234 rev/d
Perigee alt
482.4 km
Apogee alt
483.7 km
Semi-major
6,861.2 km
B*
1.5173e-5
RAAN
260.3838°
Arg perigee
267.1749°
Mean anomaly
92.8997°
Rev number
18,015

§ Raw data

STARLINK-61181 57106U 23090F   26263.68377823  .00000156  00000+0  15173-4 0  99982 57106  43.0007 260.3838 0000922 267.1749  92.8997 15.27576234180155

JSON: /api/v1/satellites/57106 · /tle

For live sub-satellite position, see the globe view (requires WebGL).

§ Visibility from observer

Set your observer location to see the next 7 days of passes ≥ 10°. The values pass through the URL so the page stays shareable.

No JS? Fill the form by hand. The geolocation button needs JavaScript.